Temp
12 12 12 12 13 14 14 15 15 16 17 17 17 17 18 19 18 17 16 17 18 19 17 19 19 20 21 21 21 21 21 20 20 20 20 20 20 21 20 20 20 20 20 20
12 13 13 14 14 15 14 13 14 16 17 16 16 17 17 18 17 17 17 17 17 18 16 16 17 18 19 19 20 20 20 20 20 20 19 19 19 19 20 21 21 20 20 20
13 14 14 14 14 14 14 13 14 15 16 16 16 15 15 16 16 17 16 17 17 16 15 14 15 16 17 17 17 18 19 19 18 19 19 19 19 18 19 20 20 20 19 20
13 14 14 13 13 14 14 15 15 16 15 13 16 13 14 15 17 16 16 15 15 14 14 13 14 15 16 16 16 16 17 17 17 17 18 19 18 18 17 17 18 18 18 19
11 13 13 13 13 14 15 14 15 15 14 14 15 13 13 16 15 16 14 13 13 13 13 13 14 15 15 15 15 16 16 16 16 16 16 16 17 17 17 17 17 18 19 18
10 11 11 11 11 12 12 15 13 13 13 11 13 13 13 14 16 16 14 13 13 12 12 13 14 15 14 14 15 15 15 14 15 15 15 15 15 15 15 15 16 16 16 16
10 10 10 11 11 12 13 12 12 13 13 12 12 12 17 15 15 16 13 12 12 12 11 11 11 12 13 13 13 14 14 13 13 14 14 14 13 13 13 13 14 14 14 15
10 11 11 11 11 11 11 12 10 12 11 11 13 12 15 15 14 15 15 14 12 11 11 11 11 11 12 12 12 12 12 12 12 12 12 12 12 12 12 11 12 12 12 12
10 11 10 10 12 12 11 11 12 10 10 8 11 12 14 14 14 13 14 13 12 11 11 10 10 11 11 11 11 11 11 11 11 11 11 11 11 11 10 10 10 10 10 10
10 11 11 11 11 11 11 12 11 7 10 12 12 11 13 13 12 14 14 13 12 12 11 10 10 10 10 10 10 10 10 10 9 9 9 9 9 9 9 9 9 9 9 9
11 10 10 11 11 12 11 11 11 12 10 10 12 12 12 12 13 14 14 14 12 11 10 9 9 10 10 10 10 9 9 9 8 8 8 8 7 7 7 7 7 7 7 7
13 10 11 11 12 12 12 12 12 10 12 8 7 11 12 12 13 14 14 13 12 11 10 9 9 9 9 9 9 8 8 8 7 7 7 6 6 5 5 5 5 5 6 5
12 9 10 10 11 11 10 11 13 11 8 6 9 12 12 11 12 13 13 12 12 11 10 9 8 8 8 8 8 7 7 6 6 6 5 5 4 4 3 3 3 3 4 4
13 11 10 10 11 10 9 11 11 11 10 10 9 13 14 13 13 13 13 13 12 12 11 9 8 7 8 8 7 7 6 6 5 5 4 3 2 2 2 2 2 2 2 2
12 11 12 12 12 11 11 11 10 9 11 11 13 12 14 14 13 13 14 12 11 11 10 9 8 6 7 7 6 6 5 5 4 4 3 2 2 2 2 1 1 1 1 1
10 7 6 6 11 12 10 11 10 10 11 11 11 12 13 14 13 12 12 11 10 10 9 8 7 6 6 6 6 5 5 4 4 3 2 1 1 1 1 0 0 0 0 0
10 7 6 8 11 10 10 10 11 11 10 12 11 13 14 13 14 13 11 11 11 10 9 8 7 6 6 6 6 4 4 3 3 2 1 1 1 0 -0 -0 -0 -0 -1 -0
9 8 6 6 8 7 11 12 12 12 12 11 12 12 13 13 13 12 11 10 10 10 9 7 7 6 6 6 5 4 3 2 2 1 1 1 0 -0 -0 -0 -1 -1 -1 -1
10 9 7 8 7 9 12 12 11 10 11 11 12 11 12 13 11 12 10 10 10 9 8 8 8 7 6 5 4 3 2 2 1 1 0 0 -0 -0 -0 -1 -1 -2 -2 -2
11 12 9 8 8 9 12 13 12 12 11 11 11 11 11 10 11 10 9 9 8 8 8 7 6 6 5 4 3 3 2 1 1 0 0 -0 -0 -0 -0 -1 -2 -2 -3 -2
10 10 10 9 10 9 11 13 13 12 12 13 11 11 10 10 11 10 7 8 7 7 6 6 6 5 5 4 3 2 1 1 1 0 0 -0 -0 -0 -1 -1 -1 -1 -1 -1
9 10 10 9 10 9 12 13 12 12 12 13 12 12 11 10 8 7 8 6 6 5 5 5 4 4 3 3 3 1 1 1 0 0 -0 -0 -0 -1 -1 -1 -1 -1 -1 -1
10 10 10 9 10 11 11 12 12 11 12 13 13 12 11 9 9 8 7 6 6 5 4 4 4 2 2 2 2 0 1 0 0 0 0 1 0 -0 -0 -0 0 -0 -0 -0
11 9 10 10 12 11 11 12 12 12 13 12 12 11 11 11 9 8 7 6 6 5 4 4 3 2 1 1 1 1 1 0 0 0 0 0 -0 -0 0 0 1 1 0 -0
9 10 10 9 11 11 12 11 11 11 11 11 11 11 11 10 9 8 7 6 5 5 4 4 2 1 1 1 1 1 1 0 -0 -1 -0 0 0 0 0 0 1 1 1 0
9 10 10 10 11 11 11 10 10 9 10 10 10 10 10 10 9 8 7 6 5 5 4 3 2 2 2 1 1 1 1 1 0 0 0 1 1 0 1 0 0 -0 -0 -1
Height
788 791 792 798 799 799 804 804 806 803 796 801 804 805 799 791 794 796 794 795 795 793 792 793 796 796 798 800 802 804 806 808 809 811 812 813 813 815 816 817 818 820 820 821
790 789 793 794 796 798 804 810 810 804 796 803 805 802 798 792 793 792 790 791 792 792 794 795 797 796 797 798 800 803 805 806 806 807 808 810 811 811 812 812 814 814 816 817
784 786 789 793 799 802 805 811 809 808 803 801 806 811 804 793 791 788 788 786 788 791 794 796 796 796 797 799 800 801 802 803 804 805 806 806 807 808 808 807 808 810 811 813
786 787 792 796 800 803 806 800 800 803 811 822 804 823 802 792 788 787 787 789 789 791 793 795 795 797 798 798 799 800 801 801 801 801 802 803 803 804 805 805 805 805 806 808
799 790 794 799 799 799 803 800 799 805 813 811 811 822 801 787 793 782 785 788 790 791 791 794 795 797 799 800 801 801 801 802 801 799 799 799 800 801 801 802 803 803 803 803
799 799 802 805 807 805 805 800 807 811 817 829 813 820 802 791 779 776 781 785 788 791 792 793 795 798 799 800 801 801 802 802 802 801 800 800 800 800 799 800 799 800 800 799
806 808 807 805 806 806 804 812 825 822 820 822 812 818 777 775 773 770 778 784 786 788 791 793 795 797 799 800 800 801 802 802 802 802 801 801 800 800 800 799 799 798 798 798
805 803 804 806 805 808 811 811 830 819 825 821 808 806 777 769 768 766 767 775 783 788 789 792 795 797 799 800 801 801 801 802 802 802 801 801 800 800 800 800 799 799 798 797
802 805 808 809 804 805 814 812 812 826 827 844 809 793 774 769 769 770 771 776 782 786 789 792 795 797 799 800 801 801 801 801 801 801 801 801 801 800 799 799 798 798 797 796
796 802 805 804 806 807 808 807 818 838 829 813 800 801 781 773 774 769 771 775 781 786 790 793 795 797 799 800 801 801 801 801 802 801 801 801 801 801 800 799 798 797 796 795
788 797 807 806 804 796 807 806 805 800 809 819 805 792 774 768 765 765 769 773 779 785 789 792 794 796 798 800 801 801 802 802 802 802 802 802 801 801 800 799 798 797 796 796
780 797 800 797 792 794 792 794 791 806 798 820 831 794 769 767 766 765 770 773 778 782 787 790 793 795 797 799 801 801 802 802 802 802 802 802 801 801 800 799 798 797 796 795
778 802 800 802 799 794 796 791 785 793 810 830 820 787 767 768 768 768 771 774 778 782 786 789 792 794 796 798 799 800 800 801 802 802 802 802 801 800 801 800 799 797 796 796
772 786 793 794 786 790 798 787 787 791 803 799 802 773 768 769 768 769 770 771 775 779 783 786 789 792 794 796 797 798 800 801 801 802 802 802 802 802 802 801 800 799 798 797
776 785 779 778 775 780 782 780 786 795 780 783 769 778 764 763 765 766 765 771 776 779 781 783 786 790 793 794 796 797 800 801 801 801 802 802 802 802 802 802 802 802 801 800
780 800 803 808 778 774 782 778 780 781 779 776 774 772 758 757 763 766 767 770 774 776 778 781 784 787 790 791 793 796 798 800 800 801 802 803 803 803 803 804 803 805 804 802
779 797 810 802 779 783 787 768 767 768 769 761 773 753 756 759 756 760 765 767 768 772 775 779 781 784 787 790 792 794 796 799 800 801 803 804 804 804 804 804 807 806 805 805
783 791 807 810 796 814 759 750 752 752 754 760 755 753 753 754 754 755 758 762 765 768 772 776 779 783 786 789 792 794 796 798 801 802 803 803 805 805 805 806 808 807 807 808
773 781 798 801 801 777 751 748 754 758 750 747 747 752 752 753 756 756 758 759 761 765 768 772 775 780 784 787 791 792 795 797 799 801 802 803 804 805 805 808 808 809 809 811
769 766 784 792 797 781 750 742 743 746 755 738 742 748 751 756 762 758 755 757 761 763 767 771 776 780 783 786 789 791 793 795 797 799 801 803 804 806 807 808 809 812 813 813
772 776 777 784 778 771 750 742 742 752 748 734 739 741 749 753 750 750 753 758 761 764 768 772 776 778 782 784 787 789 791 793 796 798 800 803 804 806 808 809 811 813 814 814
770 770 773 778 778 778 743 744 748 742 737 735 736 738 744 747 752 753 754 759 762 766 770 773 776 779 781 783 785 787 790 792 795 798 801 802 804 806 808 811 812 813 814 815
759 758 763 766 761 744 742 739 737 739 738 736 737 738 740 746 750 752 756 759 762 766 769 772 775 778 780 782 784 786 788 791 794 797 800 802 804 806 809 810 810 811 813 813
746 748 751 753 741 742 739 738 737 737 737 738 738 739 741 742 747 752 755 758 761 763 766 769 772 774 776 779 782 784 787 791 794 797 799 802 804 806 807 808 809 810 811 811
742 744 746 749 742 739 735 737 736 737 738 739 740 742 743 746 749 749 752 755 757 760 763 766 768 771 773 777 780 783 787 789 792 795 798 800 803 804 806 808 808 809 809 810
735 737 743 742 734 735 734 733 735 738 739 740 741 742 743 745 746 748 751 751 755 758 760 763 766 769 772 774 777 780 784 786 789 791 795 797 800 803 804 805 806 807 808 808
Wind_Speed
9 5 13 5 6 5 7 1 5 5 5 5 7 4 10 9 4 7 7 7 6 5 2 7 8 10 12 11 9 8 8 11 18 22 23 22 24 28 30 30 26 24 23 26
5 8 5 8 6 5 7 6 4 2 4 4 6 14 9 11 6 6 8 8 8 3 4 7 8 9 9 5 3 3 3 4 5 11 21 22 20 23 28 25 26 28 28 27
8 7 8 8 7 6 1 5 3 4 2 2 4 6 9 8 4 5 7 5 5 9 8 6 8 8 7 5 4 2 5 5 5 7 7 8 13 16 14 17 20 21 23 24
4 4 10 7 8 5 5 4 6 2 3 4 4 5 6 9 15 10 10 7 8 7 6 5 8 8 6 6 4 5 4 3 1 3 7 10 8 8 6 6 10 14 17 18
2 4 13 7 5 5 5 3 5 2 5 3 1 1 6 3 9 16 10 9 8 8 9 8 9 11 9 7 6 6 5 5 6 6 3 1 4 7 8 8 9 7 12 14
3 1 3 3 2 3 3 2 6 4 4 2 5 5 5 6 8 8 5 6 9 9 8 8 12 12 10 8 7 7 7 7 6 6 6 5 4 2 1 2 3 4 1 4
3 3 1 2 5 4 2 4 2 2 4 5 3 5 15 6 7 7 8 9 8 8 8 8 8 10 9 7 6 5 5 6 6 6 5 7 7 6 5 4 4 3 1 2
4 3 3 2 1 5 3 3 4 5 4 4 2 8 7 5 7 7 13 13 10 8 7 8 9 11 9 6 4 4 4 4 5 5 4 3 3 3 3 3 2 3 3 3
4 1 2 2 2 3 4 6 2 2 3 3 5 7 9 2 2 8 12 10 9 8 7 8 10 11 8 6 6 5 5 6 5 5 4 4 3 3 4 4 3 2 3 4
7 4 4 3 1 0 3 2 2 3 3 3 4 5 6 3 8 11 12 11 9 7 7 7 9 10 9 8 8 7 7 7 7 7 6 6 5 4 4 4 4 4 4 4
5 4 4 5 7 9 5 4 6 3 4 4 3 5 5 10 12 15 12 12 11 8 7 7 9 10 10 9 8 7 6 6 6 5 5 4 4 4 4 5 5 6 5 5
7 5 4 2 4 7 7 5 4 4 4 2 3 5 5 7 8 8 10 9 8 8 8 7 11 13 11 10 8 6 6 6 5 4 4 5 5 5 5 7 8 7 7 6
6 0 3 1 1 3 4 5 5 2 3 5 5 5 4 3 7 6 8 7 8 8 7 6 8 11 12 10 8 6 5 5 4 3 4 6 7 7 8 8 8 8 8 9
3 4 6 7 5 5 5 7 12 8 4 3 5 4 2 4 8 7 7 9 9 10 9 7 6 10 13 11 10 7 6 5 4 4 5 6 7 6 7 7 8 10 12 12
4 5 4 5 4 4 5 6 10 10 11 8 7 7 6 10 10 11 10 7 7 7 7 7 7 8 14 13 12 9 7 6 5 5 5 6 6 5 5 6 7 8 11 12
2 2 2 3 4 4 3 7 9 12 5 7 5 5 7 7 2 5 8 8 8 7 7 7 7 11 14 15 13 11 9 7 6 6 6 6 6 6 7 8 10 12 13 14
3 4 3 4 1 3 6 13 15 7 7 13 9 13 2 6 12 9 8 9 10 8 8 8 8 14 18 17 16 14 11 9 7 7 6 5 6 8 10 11 12 13 13 15
5 5 2 2 3 2 6 3 5 15 7 10 4 6 7 5 5 7 6 9 8 8 8 8 11 15 17 16 17 14 12 9 8 8 7 7 8 11 12 12 11 12 13 15
4 5 2 3 3 7 4 4 6 7 8 14 15 8 6 3 4 2 6 6 7 7 7 12 18 19 17 18 18 15 12 10 10 9 8 8 11 12 11 11 11 11 14 14
4 3 4 2 1 5 4 1 3 3 5 6 12 9 7 7 5 4 7 5 6 10 13 16 17 17 19 19 18 16 14 12 11 11 11 12 12 13 13 12 12 10 10 15
3 2 5 5 4 7 7 3 4 3 4 1 8 10 8 5 4 2 8 4 7 11 15 17 20 21 19 20 19 17 15 14 12 12 13 14 14 13 12 13 13 10 9 8
6 6 3 3 4 8 4 2 5 4 2 2 4 5 7 5 5 5 7 8 8 11 15 18 18 16 15 18 20 17 14 13 14 15 16 15 15 14 12 14 12 9 7 6
4 6 5 7 5 5 5 4 4 4 2 1 3 3 6 6 5 7 6 7 8 13 15 19 18 17 16 17 16 13 13 16 18 18 17 16 15 14 13 12 10 9 9 7
4 4 3 2 5 6 6 4 3 4 3 2 2 3 3 4 6 6 6 7 7 12 14 17 17 18 16 13 12 12 17 19 19 18 18 17 16 15 12 11 10 10 10 10
5 6 6 4 5 5 5 6 5 4 4 4 3 3 3 4 4 6 7 7 10 14 16 20 20 18 18 17 16 16 20 22 20 19 19 17 15 14 13 12 11 11 10 10
5 6 5 5 6 4 5 2 4 7 5 5 4 2 0 2 4 5 5 11 14 15 19 19 21 20 21 21 20 21 23 24 23 21 19 18 17 16 15 13 10 10 9 8
Wind_Direction
187 171 193 159 129 139 114 147 180 196 183 152 212 240 249 264 293 259 230 219 237 270 22 144 155 148 145 136 142 152 172 213 232 232 230 232 235 237 239 235 234 235 238 239
156 195 150 132 169 118 165 175 233 302 261 180 204 234 228 252 227 223 216 210 210 163 128 110 122 114 117 121 143 156 170 201 209 223 235 237 243 247 247 249 247 248 249 249
166 156 142 146 184 177 179 161 208 187 53 198 120 276 245 250 234 238 247 232 177 180 161 140 120 106 103 83 59 0 287 271 234 224 215 213 231 241 249 254 259 259 258 260
95 132 157 163 183 128 216 218 206 154 124 213 149 268 251 221 237 234 234 207 177 165 140 140 131 108 92 74 58 50 48 33 343 252 241 244 239 224 229 248 260 262 265 263
172 152 164 167 171 145 225 329 201 202 159 134 234 235 263 196 226 232 213 195 193 175 153 153 147 129 115 102 85 72 75 62 53 51 56 220 232 248 261 263 264 279 270 265
51 74 48 94 91 71 283 68 57 60 53 295 200 178 252 211 221 213 183 189 177 167 159 141 139 132 116 108 94 75 75 69 59 49 46 51 66 70 299 327 290 253 300 242
55 8 2 89 87 26 41 66 72 190 212 226 205 183 244 244 247 212 178 177 167 155 148 140 135 129 121 102 87 71 67 68 58 57 53 56 64 71 69 50 36 37 62 22
152 165 155 72 141 162 155 128 160 200 200 232 182 225 246 246 264 210 166 163 155 151 150 140 140 134 123 105 85 85 92 80 63 59 59 47 38 43 48 48 41 25 17 350
128 147 117 243 87 175 175 204 225 115 355 68 224 291 308 62 152 145 150 152 151 149 146 141 139 137 132 116 103 102 109 85 71 86 93 67 55 49 53 44 26 359 337 320
184 121 223 151 22 91 179 102 171 278 148 258 267 268 238 218 181 167 165 154 150 147 144 143 142 142 135 128 121 118 106 94 94 98 85 73 62 51 38 21 22 16 8 3
146 104 152 157 212 192 173 219 210 150 143 185 287 263 227 207 184 175 165 158 157 159 162 158 155 150 143 139 134 124 114 109 103 93 80 69 58 44 35 35 33 22 11 12
195 126 163 202 195 215 207 219 213 137 213 193 150 275 324 241 178 162 159 159 162 162 162 161 160 155 151 150 147 133 121 110 100 89 75 67 63 59 54 50 47 42 36 35
175 269 114 29 358 192 219 209 213 67 54 214 152 257 350 101 139 162 150 160 158 161 161 164 156 164 164 161 152 140 126 118 112 97 87 81 72 69 66 63 60 61 59 60
109 160 170 192 206 144 202 186 193 188 193 193 221 276 282 191 169 174 176 169 169 177 177 172 166 173 172 170 160 148 136 137 130 114 94 85 74 66 60 58 62 67 72 75
151 202 205 218 187 168 199 190 182 194 210 202 236 217 218 202 189 191 188 174 170 185 182 180 174 174 177 169 160 155 152 150 148 130 108 92 91 88 79 81 83 82 81 83
21 260 82 303 252 222 250 237 212 222 222 244 217 260 228 215 203 177 192 182 190 191 186 182 176 176 177 173 165 159 152 154 156 134 117 106 109 106 103 105 103 104 98 94
153 132 83 269 25 14 300 228 213 206 203 214 202 220 183 218 200 202 203 193 194 187 185 185 182 181 181 179 174 164 158 157 153 143 132 137 135 122 120 117 117 107 103 101
144 124 119 204 39 302 243 285 212 216 225 209 209 174 211 227 222 192 189 184 194 188 187 185 177 180 180 175 172 164 162 162 168 161 161 147 148 135 131 129 124 117 110 106
168 144 134 166 208 285 260 206 175 170 261 208 211 194 211 161 97 250 202 198 197 185 173 182 186 175 173 175 171 164 157 162 169 172 168 161 155 144 139 141 132 125 120 118
142 140 138 144 191 245 260 235 179 139 285 198 195 191 174 143 176 229 185 165 152 159 163 162 170 174 174 176 173 166 160 168 172 176 172 167 161 156 152 148 140 140 137 129
137 83 202 213 246 281 251 219 152 135 248 265 198 192 159 185 199 185 132 127 147 155 161 167 171 173 175 176 175 169 166 172 180 176 171 167 166 165 162 154 145 139 136 132
167 175 180 168 212 261 180 82 174 234 341 29 116 146 166 164 147 149 136 144 147 151 158 171 170 176 179 182 182 174 177 181 176 175 175 172 170 171 167 161 160 157 162 165
190 187 182 182 213 243 215 219 243 181 178 267 128 126 140 142 167 161 157 159 164 164 168 181 179 173 176 180 188 179 191 184 180 184 180 176 175 172 176 180 181 187 194 204
238 159 187 124 243 231 228 225 217 196 181 132 88 116 143 157 165 177 164 171 170 169 171 181 179 177 182 187 195 205 192 189 187 186 183 181 188 187 192 195 198 204 208 213
191 141 185 241 281 295 237 221 209 180 143 126 111 138 173 169 199 192 184 183 183 180 179 189 189 190 193 195 200 201 195 188 181 188 191 194 194 196 196 205 213 216 223 230
179 179 169 217 214 187 244 278 177 170 179 175 159 154 219 202 227 192 196 192 186 187 186 190 198 201 201 198 197 200 199 196 194 191 196 198 199 203 205 206 210 216 226 224